timestamp,wind_dir_avg,wind_spd_avg,wind_spd_max_dir,wind_spd_gust,battery_voltage,lat,long
2023-12-10 00:04:00+00:00,341.0,6.42,337.0,7.43,12.41,47.59359,-54.27349
2023-12-10 00:14:00+00:00,341.0,6.47,342.0,8.14,12.33,47.59359,-54.27349
2023-12-10 00:24:00+00:00,339.0,6.65,344.0,7.57,12.33,47.59359,-54.27349
2023-12-10 00:34:00+00:00,332.0,6.41,335.0,7.22,12.33,47.59359,-54.27349
2023-12-10 00:44:00+00:00,342.0,6.54,338.0,7.52,12.33,47.59359,-54.27349
2023-12-10 00:54:00+00:00,342.0,5.82,337.0,6.58,12.33,47.59359,-54.27349
2023-12-10 01:04:00+00:00,352.0,5.16,349.0,6.0,12.33,47.59359,-54.27349
2023-12-10 01:14:00+00:00,357.0,7.09,0.0,8.27,12.33,47.59359,-54.27349
2023-12-10 01:24:00+00:00,1.0,7.68,5.0,9.54,12.33,47.59359,-54.27349
2023-12-10 01:34:00+00:00,353.0,6.58,359.0,7.5,12.33,47.59359,-54.27349
2023-12-10 01:44:00+00:00,351.0,6.2,355.0,7.14,12.33,47.59359,-54.27349
2023-12-10 01:54:00+00:00,343.0,5.38,340.0,6.09,12.33,47.59359,-54.27349
2023-12-10 02:04:00+00:00,351.0,6.4,352.0,7.31,12.33,47.59359,-54.27349
2023-12-10 02:14:00+00:00,346.0,6.87,350.0,7.94,12.33,47.59359,-54.27349
2023-12-10 02:24:00+00:00,346.0,5.92,345.0,6.76,12.33,47.59359,-54.27349
2023-12-10 02:34:00+00:00,348.0,4.75,343.0,5.41,12.33,47.59359,-54.27349
2023-12-10 02:44:00+00:00,353.0,4.07,2.0,4.66,12.33,47.59359,-54.27349
2023-12-10 02:54:00+00:00,358.0,4.59,355.0,5.72,12.33,47.59359,-54.27349
2023-12-10 03:04:00+00:00,359.0,4.05,351.0,5.01,12.33,47.59359,-54.27349
2023-12-10 03:14:00+00:00,353.0,6.5,355.0,7.8,12.33,47.59359,-54.27349
2023-12-10 03:24:00+00:00,351.0,5.42,353.0,6.52,12.33,47.59359,-54.27349
2023-12-10 03:34:00+00:00,326.0,4.79,324.0,5.39,12.33,47.59359,-54.27349
2023-12-10 03:44:00+00:00,327.0,3.8,321.0,4.72,12.33,47.59359,-54.27349
2023-12-10 03:54:00+00:00,324.0,3.83,320.0,4.53,12.33,47.59359,-54.27349
2023-12-10 04:04:00+00:00,325.0,4.89,327.0,5.35,12.33,47.59359,-54.27349
2023-12-10 04:14:00+00:00,330.0,5.1,331.0,5.95,12.25,47.59359,-54.27349
2023-12-10 04:24:00+00:00,329.0,5.09,331.0,5.98,12.25,47.59359,-54.27349
2023-12-10 04:34:00+00:00,343.0,6.3,346.0,7.8,12.25,47.59359,-54.27349
2023-12-10 04:44:00+00:00,354.0,5.85,352.0,7.34,12.25,47.59359,-54.27349
2023-12-10 04:54:00+00:00,351.0,6.8,358.0,9.03,12.25,47.59359,-54.27349
2023-12-10 05:04:00+00:00,355.0,6.67,1.0,8.93,12.25,47.59359,-54.27349
2023-12-10 05:14:00+00:00,351.0,8.15,345.0,9.35,12.25,47.59359,-54.27349
2023-12-10 05:24:00+00:00,350.0,5.78,8.0,6.76,12.25,47.59359,-54.27349
2023-12-10 05:34:00+00:00,0.0,5.82,358.0,7.22,12.25,47.59359,-54.27349
2023-12-10 05:44:00+00:00,353.0,6.18,2.0,7.0,12.25,47.59359,-54.27349
2023-12-10 05:54:00+00:00,352.0,8.55,351.0,9.31,12.25,47.59359,-54.27349
2023-12-10 06:04:00+00:00,346.0,8.49,347.0,10.17,12.25,47.59359,-54.27349
2023-12-10 06:14:00+00:00,347.0,8.26,346.0,9.37,12.25,47.59359,-54.27349
2023-12-10 06:24:00+00:00,351.0,6.65,342.0,8.12,12.25,47.59359,-54.27349
2023-12-10 06:34:00+00:00,339.0,7.71,339.0,8.99,12.25,47.59359,-54.27349
2023-12-10 06:44:00+00:00,339.0,7.96,344.0,9.13,12.25,47.59359,-54.27349
2023-12-10 06:54:00+00:00,336.0,8.12,335.0,8.96,12.25,47.59359,-54.27349
2023-12-10 07:04:00+00:00,335.0,7.3,336.0,8.98,12.25,47.59359,-54.27349
2023-12-10 07:14:00+00:00,333.0,7.35,339.0,9.48,12.25,47.59359,-54.27349
2023-12-10 07:24:00+00:00,346.0,7.57,347.0,9.28,12.25,47.59359,-54.27349
2023-12-10 07:34:00+00:00,357.0,7.78,350.0,8.68,12.25,47.59359,-54.27349
2023-12-10 07:44:00+00:00,4.0,7.09,3.0,9.15,12.25,47.59359,-54.27349
2023-12-10 07:54:00+00:00,359.0,8.67,356.0,9.96,12.25,47.59359,-54.27349
2023-12-10 08:04:00+00:00,0.0,7.22,8.0,8.0,12.25,47.59359,-54.27349
2023-12-10 08:14:00+00:00,1.0,7.14,2.0,8.55,12.17,47.59359,-54.27349
2023-12-10 08:24:00+00:00,350.0,7.84,349.0,9.07,12.17,47.59359,-54.27349
2023-12-10 08:34:00+00:00,340.0,5.88,337.0,7.4,12.17,47.59359,-54.27349
2023-12-10 08:44:00+00:00,9.0,6.59,0.0,8.15,12.17,47.59359,-54.27349
2023-12-10 08:54:00+00:00,352.0,5.64,346.0,6.38,12.17,47.59359,-54.27349
2023-12-10 09:04:00+00:00,344.0,5.98,336.0,7.16,12.17,47.59359,-54.27349
2023-12-10 09:14:00+00:00,6.0,7.25,358.0,8.53,12.17,47.59359,-54.27349
2023-12-10 09:24:00+00:00,339.0,7.65,343.0,9.35,12.17,47.59359,-54.27349
2023-12-10 09:34:00+00:00,1.0,7.11,6.0,8.0,12.17,47.59359,-54.27349
2023-12-10 09:44:00+00:00,355.0,7.12,7.0,8.32,12.17,47.59359,-54.27349
2023-12-10 09:54:00+00:00,343.0,6.0,345.0,7.1,12.17,47.59359,-54.27349
2023-12-10 10:04:00+00:00,346.0,5.43,343.0,6.75,12.17,47.59359,-54.27349
2023-12-10 10:14:00+00:00,338.0,5.67,331.0,6.95,12.17,47.59359,-54.27349
2023-12-10 10:24:00+00:00,343.0,7.66,346.0,8.74,12.17,47.59359,-54.27349
2023-12-10 10:34:00+00:00,358.0,7.27,356.0,8.67,12.17,47.59359,-54.27349
2023-12-10 10:44:00+00:00,353.0,6.4,356.0,8.07,12.17,47.59359,-54.27349
2023-12-10 10:54:00+00:00,351.0,7.17,354.0,8.36,12.17,47.59359,-54.27349
2023-12-10 11:04:00+00:00,342.0,6.12,345.0,8.9,12.17,47.59359,-54.27349
2023-12-10 11:14:00+00:00,332.0,6.3,335.0,7.49,12.17,47.59359,-54.27349
2023-12-10 11:24:00+00:00,341.0,6.68,341.0,7.58,12.17,47.59359,-54.27349
2023-12-10 11:34:00+00:00,344.0,6.73,345.0,7.81,12.17,47.59359,-54.27349
2023-12-10 11:44:00+00:00,348.0,6.06,348.0,7.13,12.17,47.59359,-54.27349
2023-12-10 11:54:00+00:00,338.0,5.94,338.0,6.73,12.17,47.59359,-54.27349
2023-12-10 12:04:00+00:00,354.0,6.48,344.0,7.95,12.17,47.59359,-54.27349
2023-12-10 12:14:00+00:00,340.0,3.55,338.0,4.31,12.17,47.59359,-54.27349
2023-12-10 12:24:00+00:00,0.0,4.41,4.0,5.07,12.17,47.59359,-54.27349
2023-12-10 12:34:00+00:00,331.0,4.64,327.0,5.95,12.17,47.59359,-54.27349
2023-12-10 12:44:00+00:00,332.0,5.58,330.0,7.03,12.17,47.59359,-54.27349
2023-12-10 12:54:00+00:00,333.0,6.87,340.0,8.17,12.17,47.59359,-54.27349
2023-12-10 13:04:00+00:00,353.0,5.63,356.0,6.38,12.17,47.59359,-54.27349
2023-12-10 13:14:00+00:00,338.0,4.47,330.0,5.61,12.57,47.59359,-54.27349
2023-12-10 13:24:00+00:00,335.0,4.26,331.0,5.0,12.57,47.59359,-54.27349
2023-12-10 13:34:00+00:00,340.0,2.78,338.0,3.73,12.57,47.59359,-54.27349
2023-12-10 13:44:00+00:00,320.0,3.73,320.0,4.41,12.57,47.59359,-54.27349
2023-12-10 13:54:00+00:00,297.0,3.02,302.0,3.34,12.57,47.59359,-54.27349
2023-12-10 14:04:00+00:00,339.0,2.97,343.0,3.4,12.57,47.59359,-54.27349
2023-12-10 14:14:00+00:00,313.0,4.31,319.0,4.93,13.44,47.59359,-54.27349
2023-12-10 14:24:00+00:00,310.0,3.84,306.0,4.44,13.44,47.59359,-54.27349
2023-12-10 14:34:00+00:00,344.0,1.04,324.0,1.46,13.44,47.59359,-54.27349
2023-12-10 14:44:00+00:00,308.0,1.94,316.0,2.78,13.44,47.59359,-54.27349
2023-12-10 14:54:00+00:00,263.0,0.17,269.0,0.76,13.44,47.59359,-54.27349
2023-12-10 15:04:00+00:00,204.0,1.55,197.0,2.33,13.44,47.59359,-54.27349
2023-12-10 15:14:00+00:00,213.0,0.97,216.0,1.34,13.68,47.59359,-54.27349
2023-12-10 15:24:00+00:00,244.0,2.71,245.0,3.13,13.68,47.59359,-54.27349
2023-12-10 15:34:00+00:00,219.0,0.98,221.0,1.3,13.68,47.59359,-54.27349
2023-12-10 15:44:00+00:00,229.0,3.37,224.0,4.2,13.68,47.59359,-54.27349
2023-12-10 15:54:00+00:00,301.0,2.93,306.0,3.66,13.68,47.59359,-54.27349
2023-12-10 16:04:00+00:00,315.0,1.95,316.0,3.1,13.68,47.59359,-54.27349
2023-12-10 16:14:00+00:00,265.0,2.56,272.0,2.95,13.6,47.59359,-54.27349
2023-12-10 16:24:00+00:00,277.0,1.45,301.0,1.89,13.6,47.59359,-54.27349
2023-12-10 16:34:00+00:00,234.0,2.36,236.0,2.89,13.6,47.59359,-54.27349
2023-12-10 16:44:00+00:00,210.0,2.24,219.0,2.63,13.6,47.59359,-54.27349
2023-12-10 16:54:00+00:00,250.0,2.47,250.0,2.93,13.6,47.59359,-54.27349
2023-12-10 17:04:00+00:00,236.0,1.79,236.0,2.32,13.6,47.59359,-54.27349
2023-12-10 17:14:00+00:00,197.0,2.26,205.0,3.0,13.6,47.59359,-54.27349
2023-12-10 17:24:00+00:00,274.0,2.74,265.0,3.43,13.6,47.59359,-54.27349
2023-12-10 17:34:00+00:00,239.0,3.91,234.0,4.42,13.6,47.59359,-54.27349
2023-12-10 17:44:00+00:00,240.0,4.79,238.0,5.39,13.6,47.59359,-54.27349
2023-12-10 17:54:00+00:00,228.0,3.42,225.0,3.78,13.6,47.59359,-54.27349
2023-12-10 18:04:00+00:00,257.0,3.32,252.0,3.82,13.6,47.59359,-54.27349
2023-12-10 18:14:00+00:00,264.0,2.96,246.0,3.4,14.48,47.59359,-54.27349
2023-12-10 18:24:00+00:00,239.0,2.91,232.0,3.49,14.48,47.59359,-54.27349
2023-12-10 18:34:00+00:00,230.0,3.94,229.0,4.39,14.48,47.59359,-54.27349
2023-12-10 18:44:00+00:00,230.0,2.7,231.0,3.11,14.48,47.59359,-54.27349
2023-12-10 18:54:00+00:00,227.0,3.8,224.0,4.79,14.48,47.59359,-54.27349
2023-12-10 19:04:00+00:00,225.0,3.08,229.0,3.5,14.48,47.59359,-54.27349
2023-12-10 19:14:00+00:00,223.0,3.92,224.0,4.65,13.6,47.59359,-54.27349
2023-12-10 19:24:00+00:00,231.0,3.95,231.0,4.76,13.6,47.59359,-54.27349
2023-12-10 19:34:00+00:00,214.0,3.43,217.0,4.07,13.6,47.59359,-54.27349
2023-12-10 19:44:00+00:00,230.0,2.43,221.0,3.06,13.6,47.59359,-54.27349
2023-12-10 19:54:00+00:00,226.0,3.68,219.0,4.0,13.6,47.59359,-54.27349
2023-12-10 20:04:00+00:00,229.0,4.54,227.0,5.01,13.6,47.59359,-54.27349
2023-12-10 20:14:00+00:00,229.0,4.59,229.0,5.15,12.73,47.59359,-54.27349
2023-12-10 20:24:00+00:00,236.0,4.67,235.0,5.06,12.73,47.59359,-54.27349
2023-12-10 20:34:00+00:00,226.0,3.99,225.0,4.53,12.73,47.59359,-54.27349
2023-12-10 20:44:00+00:00,222.0,4.37,222.0,5.07,12.73,47.59359,-54.27349
2023-12-10 20:54:00+00:00,207.0,4.45,212.0,5.26,12.73,47.59359,-54.27349
2023-12-10 21:04:00+00:00,220.0,4.47,220.0,4.94,12.73,47.59359,-54.27349
2023-12-10 21:14:00+00:00,226.0,4.27,222.0,4.91,12.41,47.59359,-54.27349
2023-12-10 21:24:00+00:00,218.0,4.18,218.0,5.03,12.41,47.59359,-54.27349
2023-12-10 21:34:00+00:00,228.0,4.81,225.0,5.4,12.41,47.59359,-54.27349
2023-12-10 21:44:00+00:00,237.0,2.84,247.0,3.5,12.41,47.59359,-54.27349
2023-12-10 21:54:00+00:00,222.0,4.25,226.0,4.87,12.41,47.59359,-54.27349
2023-12-10 22:04:00+00:00,232.0,4.04,234.0,4.92,12.41,47.59359,-54.27349
2023-12-10 22:14:00+00:00,219.0,5.36,219.0,6.17,12.41,47.59359,-54.27349
2023-12-10 22:24:00+00:00,211.0,5.12,212.0,5.79,12.41,47.59359,-54.27349
2023-12-10 22:34:00+00:00,217.0,5.16,216.0,5.75,12.41,47.59359,-54.27349
2023-12-10 22:44:00+00:00,228.0,5.18,225.0,5.57,12.41,47.59359,-54.27349
2023-12-10 22:54:00+00:00,240.0,7.02,247.0,9.38,12.41,47.59359,-54.27349
2023-12-10 23:04:00+00:00,233.0,6.82,242.0,10.13,12.41,47.59359,-54.27349
2023-12-10 23:14:00+00:00,228.0,5.63,240.0,9.11,12.33,47.59359,-54.27349
2023-12-10 23:24:00+00:00,239.0,6.8,239.0,8.47,12.33,47.59359,-54.27349
2023-12-10 23:34:00+00:00,235.0,5.27,240.0,6.3,12.33,47.59359,-54.27349
2023-12-10 23:44:00+00:00,230.0,6.14,238.0,8.78,12.33,47.59359,-54.27349
2023-12-10 23:54:00+00:00,241.0,7.64,241.0,8.85,12.33,47.59359,-54.27349
